2024/5/17 15:55 UPDATE
�s�[�N��������(��kW),���ԑ�,�����͏��X�V��,�����͏��X�V����,�s�[�N���\����(%),�s�[�N���g�p��(%)
1852,10:00�`11:00,5/17,15:43,16,86

�\�z�ő�d��(��kW),���ԑ�,�\�z�ő�d�͏��X�V��,�\�z�ő�d�͏��X�V����
1600,10:00�`11:00,5/17,15:43

�g�p���s�[�N��������(��kW),���ԑ�,�����͏��X�V��,�����͏��X�V����,�g�p���s�[�N���\����(%),�g�p���s�[�N���g�p��(%)
1333,2:00�`3:00,5/17,15:43,13,88

�g�p���s�[�N���\�z�d��(��kW),���ԑ�,�\�z�d�͏��X�V��,�\�z�d�͏��X�V����
1180,2:00�`3:00,5/17,15:43

�ő�g�p��(%),�\�z�C��(�Œ�),�\�z�C��(�ō�),�C������(�Œ�),�C������(�ō�)
88,*,*,*,*

DATE,TIME,��������(��kW),�\�z�l(��kW),�g�p��(%),�����͑z��l(��kW)
2024/5/17,0:00,1171,1190,84,1380
2024/5/17,1:00,1126,1150,86,1306
2024/5/17,2:00,1173,1180,87,1333
2024/5/17,3:00,1231,1240,87,1403
2024/5/17,4:00,1247,1260,87,1428
2024/5/17,5:00,1218,1230,87,1399
2024/5/17,6:00,1229,1230,87,1401
2024/5/17,7:00,1301,1330,84,1545
2024/5/17,8:00,1459,1470,84,1721
2024/5/17,9:00,1581,1580,85,1851
2024/5/17,10:00,1616,1600,87,1852
2024/5/17,11:00,1623,1580,88,1842
2024/5/17,12:00,1541,1510,85,1805
2024/5/17,13:00,1609,1550,88,1813
2024/5/17,14:00,1606,1560,86,1847
2024/5/17,15:00,0,1560,82,1880
2024/5/17,16:00,0,1550,83,1867
2024/5/17,17:00,0,1510,85,1773
2024/5/17,18:00,0,1490,86,1730
2024/5/17,19:00,0,1470,87,1689
2024/5/17,20:00,0,1420,88,1606
2024/5/17,21:00,0,1360,84,1605
2024/5/17,22:00,0,1310,85,1534
2024/5/17,23:00,0,1260,85,1482

�����̃s�[�N��������(��kW),���ԑ�,�����͏��X�V��,�����͏��X�V����,�s�[�N���g�p��(%)
,,,,

�����̗\�z�ő�d��(��kW),���ԑ�,�\�z�ő�d�͏��X�V��,�\�z�ő�d�͏��X�V����
,,,

�����̎g�p���s�[�N��������(��kW),���ԑ�,�����͏��X�V��,�����͏��X�V����,�g�p���s�[�N���g�p��(%)
,,,,

�����̎g�p���s�[�N���\�z�d��(��kW),���ԑ�,�\�z�d�͏��X�V��,�\�z�d�͏��X�V����
,,,

�\�z�C��(�Œ�),�\�z�C��(�ō�)
,

DATE,TIME,��������(�T���Ԋu�l)(��kW),���z�����d����(�T���Ԋu�l)(��kW)
2024/5/17,0:00,1222,0
2024/5/17,0:05,1218,0
2024/5/17,0:10,1208,0
2024/5/17,0:15,1204,0
2024/5/17,0:20,1197,0
2024/5/17,0:25,1174,0
2024/5/17,0:30,1167,0
2024/5/17,0:35,1168,0
2024/5/17,0:40,1158,0
2024/5/17,0:45,1153,0
2024/5/17,0:50,1140,0
2024/5/17,0:55,1130,0
2024/5/17,1:00,1134,0
2024/5/17,1:05,1138,0
2024/5/17,1:10,1131,0
2024/5/17,1:15,1125,0
2024/5/17,1:20,1127,0
2024/5/17,1:25,1128,0
2024/5/17,1:30,1122,0
2024/5/17,1:35,1122,0
2024/5/17,1:40,1121,0
2024/5/17,1:45,1119,0
2024/5/17,1:50,1120,0
2024/5/17,1:55,1129,0
2024/5/17,2:00,1133,0
2024/5/17,2:05,1147,0
2024/5/17,2:10,1157,0
2024/5/17,2:15,1159,0
2024/5/17,2:20,1159,0
2024/5/17,2:25,1161,0
2024/5/17,2:30,1162,0
2024/5/17,2:35,1173,0
2024/5/17,2:40,1189,0
2024/5/17,2:45,1189,0
2024/5/17,2:50,1190,0
2024/5/17,2:55,1196,0
2024/5/17,3:00,1198,0
2024/5/17,3:05,1206,0
2024/5/17,3:10,1213,0
2024/5/17,3:15,1217,0
2024/5/17,3:20,1225,0
2024/5/17,3:25,1235,0
2024/5/17,3:30,1234,0
2024/5/17,3:35,1238,0
2024/5/17,3:40,1237,0
2024/5/17,3:45,1243,0
2024/5/17,3:50,1242,0
2024/5/17,3:55,1236,0
2024/5/17,4:00,1245,0
2024/5/17,4:05,1256,0
2024/5/17,4:10,1250,0
2024/5/17,4:15,1255,0
2024/5/17,4:20,1258,0
2024/5/17,4:25,1251,0
2024/5/17,4:30,1245,0
2024/5/17,4:35,1232,0
2024/5/17,4:40,1242,0
2024/5/17,4:45,1254,0
2024/5/17,4:50,1240,0
2024/5/17,4:55,1237,0
2024/5/17,5:00,1246,0
2024/5/17,5:05,1249,1
2024/5/17,5:10,1247,3
2024/5/17,5:15,1241,7
2024/5/17,5:20,1230,9
2024/5/17,5:25,1222,12
2024/5/17,5:30,1212,16
2024/5/17,5:35,1218,19
2024/5/17,5:40,1212,25
2024/5/17,5:45,1199,36
2024/5/17,5:50,1191,43
2024/5/17,5:55,1188,50
2024/5/17,6:00,1206,57
2024/5/17,6:05,1212,64
2024/5/17,6:10,1219,72
2024/5/17,6:15,1223,80
2024/5/17,6:20,1218,90
2024/5/17,6:25,1219,100
2024/5/17,6:30,1217,111
2024/5/17,6:35,1226,122
2024/5/17,6:40,1232,134
2024/5/17,6:45,1241,146
2024/5/17,6:50,1239,157
2024/5/17,6:55,1244,169
2024/5/17,7:00,1253,182
2024/5/17,7:05,1262,194
2024/5/17,7:10,1267,207
2024/5/17,7:15,1270,221
2024/5/17,7:20,1271,233
2024/5/17,7:25,1284,246
2024/5/17,7:30,1293,258
2024/5/17,7:35,1305,271
2024/5/17,7:40,1312,284
2024/5/17,7:45,1322,297
2024/5/17,7:50,1332,309
2024/5/17,7:55,1342,321
2024/5/17,8:00,1355,333
2024/5/17,8:05,1379,345
2024/5/17,8:10,1387,357
2024/5/17,8:15,1406,369
2024/5/17,8:20,1427,380
2024/5/17,8:25,1439,391
2024/5/17,8:30,1447,402
2024/5/17,8:35,1465,412
2024/5/17,8:40,1482,423
2024/5/17,8:45,1497,433
2024/5/17,8:50,1513,443
2024/5/17,8:55,1519,452
2024/5/17,9:00,1544,462
2024/5/17,9:05,1555,471
2024/5/17,9:10,1563,480
2024/5/17,9:15,1570,489
2024/5/17,9:20,1569,497
2024/5/17,9:25,1566,504
2024/5/17,9:30,1571,511
2024/5/17,9:35,1583,518
2024/5/17,9:40,1598,524
2024/5/17,9:45,1598,531
2024/5/17,9:50,1599,535
2024/5/17,9:55,1599,540
2024/5/17,10:00,1598,545
2024/5/17,10:05,1602,549
2024/5/17,10:10,1599,553
2024/5/17,10:15,1605,556
2024/5/17,10:20,1614,560
2024/5/17,10:25,1612,564
2024/5/17,10:30,1610,567
2024/5/17,10:35,1618,570
2024/5/17,10:40,1625,572
2024/5/17,10:45,1620,574
2024/5/17,10:50,1628,575
2024/5/17,10:55,1629,578
2024/5/17,11:00,1629,580
2024/5/17,11:05,1627,581
2024/5/17,11:10,1627,583
2024/5/17,11:15,1629,584
2024/5/17,11:20,1626,586
2024/5/17,11:25,1630,587
2024/5/17,11:30,1629,587
2024/5/17,11:35,1631,587
2024/5/17,11:40,1628,587
2024/5/17,11:45,1620,586
2024/5/17,11:50,1622,586
2024/5/17,11:55,1614,586
2024/5/17,12:00,1598,586
2024/5/17,12:05,1583,585
2024/5/17,12:10,1557,583
2024/5/17,12:15,1550,581
2024/5/17,12:20,1539,580
2024/5/17,12:25,1531,580
2024/5/17,12:30,1525,579
2024/5/17,12:35,1521,577
2024/5/17,12:40,1530,576
2024/5/17,12:45,1522,574
2024/5/17,12:50,1532,572
2024/5/17,12:55,1542,571
2024/5/17,13:00,1554,568
2024/5/17,13:05,1585,566
2024/5/17,13:10,1596,563
2024/5/17,13:15,1604,558
2024/5/17,13:20,1611,555
2024/5/17,13:25,1610,554
2024/5/17,13:30,1612,552
2024/5/17,13:35,1617,547
2024/5/17,13:40,1618,543
2024/5/17,13:45,1608,538
2024/5/17,13:50,1613,532
2024/5/17,13:55,1615,526
2024/5/17,14:00,1620,521
2024/5/17,14:05,1614,514
2024/5/17,14:10,1611,507
2024/5/17,14:15,1608,502
2024/5/17,14:20,1613,495
2024/5/17,14:25,1608,487
2024/5/17,14:30,1611,480
2024/5/17,14:35,1608,473
2024/5/17,14:40,1604,465
2024/5/17,14:45,1599,457
2024/5/17,14:50,1602,448
2024/5/17,14:55,1597,437
2024/5/17,15:00,1591,427
2024/5/17,15:05,1587,417
2024/5/17,15:10,1583,406
2024/5/17,15:15,1586,393
2024/5/17,15:20,1596,381
2024/5/17,15:25,1600,365
2024/5/17,15:30,1601,351
2024/5/17,15:35,1593,341
2024/5/17,15:40,1592,332
2024/5/17,15:45,,
2024/5/17,15:50,,
2024/5/17,15:55,,
2024/5/17,16:00,,
2024/5/17,16:05,,
2024/5/17,16:10,,
2024/5/17,16:15,,
2024/5/17,16:20,,
2024/5/17,16:25,,
2024/5/17,16:30,,
2024/5/17,16:35,,
2024/5/17,16:40,,
2024/5/17,16:45,,
2024/5/17,16:50,,
2024/5/17,16:55,,
2024/5/17,17:00,,
2024/5/17,17:05,,
2024/5/17,17:10,,
2024/5/17,17:15,,
2024/5/17,17:20,,
2024/5/17,17:25,,
2024/5/17,17:30,,
2024/5/17,17:35,,
2024/5/17,17:40,,
2024/5/17,17:45,,
2024/5/17,17:50,,
2024/5/17,17:55,,
2024/5/17,18:00,,
2024/5/17,18:05,,
2024/5/17,18:10,,
2024/5/17,18:15,,
2024/5/17,18:20,,
2024/5/17,18:25,,
2024/5/17,18:30,,
2024/5/17,18:35,,
2024/5/17,18:40,,
2024/5/17,18:45,,
2024/5/17,18:50,,
2024/5/17,18:55,,
2024/5/17,19:00,,
2024/5/17,19:05,,
2024/5/17,19:10,,
2024/5/17,19:15,,
2024/5/17,19:20,,
2024/5/17,19:25,,
2024/5/17,19:30,,
2024/5/17,19:35,,
2024/5/17,19:40,,
2024/5/17,19:45,,
2024/5/17,19:50,,
2024/5/17,19:55,,
2024/5/17,20:00,,
2024/5/17,20:05,,
2024/5/17,20:10,,
2024/5/17,20:15,,
2024/5/17,20:20,,
2024/5/17,20:25,,
2024/5/17,20:30,,
2024/5/17,20:35,,
2024/5/17,20:40,,
2024/5/17,20:45,,
2024/5/17,20:50,,
2024/5/17,20:55,,
2024/5/17,21:00,,
2024/5/17,21:05,,
2024/5/17,21:10,,
2024/5/17,21:15,,
2024/5/17,21:20,,
2024/5/17,21:25,,
2024/5/17,21:30,,
2024/5/17,21:35,,
2024/5/17,21:40,,
2024/5/17,21:45,,
2024/5/17,21:50,,
2024/5/17,21:55,,
2024/5/17,22:00,,
2024/5/17,22:05,,
2024/5/17,22:10,,
2024/5/17,22:15,,
2024/5/17,22:20,,
2024/5/17,22:25,,
2024/5/17,22:30,,
2024/5/17,22:35,,
2024/5/17,22:40,,
2024/5/17,22:45,,
2024/5/17,22:50,,
2024/5/17,22:55,,
2024/5/17,23:00,,
2024/5/17,23:05,,
2024/5/17,23:10,,
2024/5/17,23:15,,
2024/5/17,23:20,,
2024/5/17,23:25,,
2024/5/17,23:30,,
2024/5/17,23:35,,
2024/5/17,23:40,,
2024/5/17,23:45,,
2024/5/17,23:50,,
2024/5/17,23:55,,
